Location: Unspecified
(43.8044°N, 11.0278°E)
Time: 13:39:13
(UTC+02:00)

Okean 3 - Visible Passes

Search period start: 18 April 2015 00:00
Search period end: 28 April 2015 00:00
Orbit: 580 x 606 km, 82.5° (Epoch: 17 April)

Date Brightness Start Highest point End Pass type
(mag) Time Alt. Az. Time Alt. Az. Time Alt. Az.
18 Apr 6.5 00:45:57 11° NW 00:45:57 11° NW 00:46:26 10° NW visible
18 Apr 5.0 23:18:11 32° N 23:18:11 32° N 23:20:33 10° N visible
19 Apr 5.8 21:50:24 11° ENE 21:50:24 11° ENE 21:50:48 10° NE visible
19 Apr 4.9 23:26:59 36° NNW 23:26:59 36° NNW 23:29:46 10° N visible
20 Apr 5.3 21:59:10 17° ENE 21:59:10 17° ENE 22:00:58 10° NE visible
20 Apr 5.1 23:35:45 31° NW 23:35:45 31° NW 23:38:51 10° N visible
21 Apr 4.6 22:07:52 27° ENE 22:07:52 27° ENE 22:10:43 10° NNE visible
21 Apr 5.5 23:44:27 23° WNW 23:44:27 23° WNW 23:47:46 10° NNW visible
22 Apr 3.9 22:16:32 44° ENE 22:16:32 44° ENE 22:20:15 10° NNE visible
22 Apr 6.0 23:53:07 15° W 23:53:52 16° WNW 23:56:25 10° NNW visible
23 Apr 3.3 22:25:09 69° SE 22:25:23 72° E 22:29:38 10° NNE visible
24 Apr 6.4 00:02:17 10° W 00:03:23 11° WNW 00:04:16 10° NW visible
24 Apr 3.5 22:33:41 51° SSW 22:34:38 73° W 22:38:54 10° N visible
25 Apr 5.2 21:05:35 13° ESE 21:06:58 15° E 21:09:27 10° NE visible
25 Apr 4.3 22:42:09 29° SW 22:43:56 47° WNW 22:48:04 10° N visible
26 Apr 4.7 21:13:58 15° SE 21:16:05 22° E 21:19:26 10° NE visible
26 Apr 5.2 22:50:31 16° SW 22:53:18 31° WNW 22:57:05 10° NNW visible
27 Apr 4.2 21:22:15 15° SSE 21:25:14 33° E 21:29:05 10° NNE visible
27 Apr 5.8 22:59:25 10° WSW 23:02:42 21° WNW 23:05:56 10° NNW visible
